Location: West Cummington
(42.4920°N, 72.9680°W)
Time: 18:10:02
(UTC-04:00)

Cosmos 2221 - Visible Passes

Search period start: 27 March 2015 00:00
Search period end: 06 April 2015 00:00
Orbit: 596 x 620 km, 82.5° (Epoch: 27 March)

Date Brightness Start Highest point End Pass type
(mag) Time Alt. Az. Time Alt. Az. Time Alt. Az.
27 Mar 5.6 21:08:31 10° WSW 21:11:30 17° WNW 21:14:21 10° NNW visible
28 Mar 6.1 05:37:54 10° NE 05:39:21 12° ENE 05:41:01 10° E visible
28 Mar 2.5 19:43:03 10° S 19:47:25 75° E 19:51:48 10° NNE visible
28 Mar 6.2 21:24:55 10° WNW 21:25:45 10° WNW 21:26:18 10° WNW visible
29 Mar 5.7 05:50:30 10° NNE 05:53:34 19° ENE 05:56:43 10° ESE visible
29 Mar 3.1 19:56:59 10° SSW 20:01:21 63° W 20:05:41 10° N visible
30 Mar 4.7 06:03:50 10° NNE 06:07:41 31° ENE 06:11:32 10° SE visible
30 Mar 4.3 20:11:17 10° SW 20:15:20 36° WNW 20:19:22 10° N visible
31 Mar 5.4 20:25:57 10° SW 20:29:25 22° WNW 20:32:48 10° NNW visible
01 Apr 6.1 20:41:19 10° W 20:43:36 13° WNW 20:45:42 10° NW visible
02 Apr 5.9 05:09:03 10° NE 05:11:26 15° ENE 05:13:59 10° ESE visible
03 Apr 5.1 05:22:06 10° NNE 05:25:36 24° ENE 05:29:07 10° SE visible
04 Apr 4.1 05:35:35 10° N 05:39:39 40° ENE 05:43:42 10° SSE visible
04 Apr 5.1 19:43:31 10° SW 19:47:19 28° WNW 19:51:04 10° NNW visible
05 Apr 2.8 05:49:18 10° N 05:53:36 72° E 05:57:51 10° SSE visible
05 Apr 5.8 19:58:26 10° WSW 20:01:26 17° WNW 20:04:17 10° NNW visible
